TimeCET,TemperatureF,Dew PointF,Humidity,Sea Level PressureIn,VisibilityMPH,Wind Direction,Wind SpeedMPH,Gust SpeedMPH,PrecipitationIn,Events,Conditions,WindDirDegrees,DateUTC
12:25 AM,39.2,37.4,93,29.62,6.2,SSW,8.1,-,N/A,,Unknown,200,2012-11-03 23:25:00
12:55 AM,39.2,37.4,93,29.62,6.2,SW,9.2,-,N/A,,Unknown,220,2012-11-03 23:55:00
1:00 AM,39,38,97,29.65,14,SSW,8.9,,,,Partly Cloudy,210,2012-11-04 00:00:00
1:25 AM,39.2,39.2,100,29.62,6.2,SSW,8.1,-,N/A,,Unknown,200,2012-11-04 00:25:00
1:55 AM,41.0,39.2,93,29.62,6.2,South,10.4,-,N/A,,Unknown,190,2012-11-04 00:55:00
2:25 AM,41.0,39.2,93,29.62,6.2,South,11.5,-,N/A,,Unknown,190,2012-11-04 01:25:00
2:55 AM,41.0,39.2,93,29.62,6.2,South,10.4,-,N/A,,Unknown,190,2012-11-04 01:55:00
3:25 AM,41.0,39.2,93,29.62,6.2,South,9.2,-,N/A,,Unknown,190,2012-11-04 02:25:00
3:55 AM,41.0,39.2,93,29.59,6.2,South,9.2,-,N/A,,Unknown,190,2012-11-04 02:55:00
4:00 AM,41,39,91,29.63,22,South,11.2,,,,Overcast,190,2012-11-04 03:00:00
4:25 AM,41.0,39.2,93,29.59,6.2,South,9.2,-,N/A,,Unknown,190,2012-11-04 03:25:00
4:55 AM,41.0,39.2,93,29.59,6.2,South,8.1,-,N/A,,Unknown,190,2012-11-04 03:55:00
5:25 AM,41.0,39.2,93,29.62,6.2,South,9.2,-,N/A,,Unknown,180,2012-11-04 04:25:00
5:55 AM,41.0,39.2,93,29.62,6.2,South,10.4,-,N/A,,Unknown,180,2012-11-04 04:55:00
6:25 AM,41.0,37.4,87,29.59,6.2,South,8.1,-,N/A,,Unknown,170,2012-11-04 05:25:00
6:55 AM,41.0,37.4,87,29.59,6.2,SSE,9.2,-,N/A,,Unknown,160,2012-11-04 05:55:00
7:00 AM,41,38,85,29.62,14,South,8.9,,,,Partly Cloudy,170,2012-11-04 06:00:00
7:25 AM,41.0,37.4,87,29.59,6.2,South,8.1,-,N/A,,Unknown,170,2012-11-04 06:25:00
7:55 AM,41.0,39.2,93,29.56,6.2,South,8.1,-,N/A,,Unknown,170,2012-11-04 06:55:00
8:25 AM,42.8,39.2,87,29.56,6.2,SSE,9.2,-,N/A,,Unknown,160,2012-11-04 07:25:00
8:55 AM,42.8,39.2,87,29.56,6.2,South,8.1,-,N/A,,Unknown,170,2012-11-04 07:55:00
9:25 AM,44.6,41.0,87,29.56,6.2,South,9.2,-,N/A,,Unknown,170,2012-11-04 08:25:00
9:55 AM,44.6,41.0,87,29.53,6.2,SSE,6.9,-,N/A,,Unknown,160,2012-11-04 08:55:00
10:00 AM,45,41,79,29.55,17,SSE,6.7,,,,Overcast,150,2012-11-04 09:00:00
10:25 AM,46.4,41.0,81,29.50,6.2,SSE,6.9,-,N/A,,Unknown,150,2012-11-04 09:25:00
10:55 AM,48.2,42.8,82,29.50,6.2,South,10.4,-,N/A,,Unknown,170,2012-11-04 09:55:00
11:25 AM,48.2,42.8,82,29.50,6.2,South,11.5,-,N/A,,Unknown,170,2012-11-04 10:25:00
11:55 AM,50.0,42.8,76,29.47,6.2,SSE,11.5,-,N/A,,Unknown,160,2012-11-04 10:55:00
12:25 PM,50.0,42.8,76,29.44,6.2,South,13.8,-,N/A,,Mostly Cloudy,170,2012-11-04 11:25:00
12:55 PM,50.0,42.8,76,29.42,6.2,SSE,12.7,-,N/A,,Partly Cloudy,160,2012-11-04 11:55:00
1:00 PM,50,42,67,29.43,28,SSE,13.4,,,,Partly Cloudy,160,2012-11-04 12:00:00
1:25 PM,50.0,42.8,76,29.39,6.2,South,13.8,-,N/A,,Overcast,170,2012-11-04 12:25:00
1:55 PM,50.0,42.8,76,29.39,6.2,South,15.0,-,N/A,Rain,Light Rain,170,2012-11-04 12:55:00
2:25 PM,50.0,46.4,87,29.39,6.2,South,12.7,-,N/A,Rain,Light Rain Showers,190,2012-11-04 13:25:00
2:55 PM,48.2,46.4,93,29.39,6.2,SSW,12.7,-,N/A,Rain,Light Rain Showers,200,2012-11-04 13:55:00
3:25 PM,50.0,48.2,94,29.39,6.2,SW,16.1,-,N/A,,Mostly Cloudy,220,2012-11-04 14:25:00
3:55 PM,50.0,42.8,76,29.39,6.2,SW,19.6,-,N/A,,Mostly Cloudy,230,2012-11-04 14:55:00
4:00 PM,49,43,73,29.40,28,SW,17.9,,,Rain,Rain,230,2012-11-04 15:00:00
4:25 PM,48.2,42.8,82,29.39,6.2,SW,17.3,-,N/A,,Scattered Clouds,230,2012-11-04 15:25:00
4:55 PM,48.2,42.8,82,29.39,6.2,SW,16.1,-,N/A,,Unknown,220,2012-11-04 15:55:00
5:25 PM,46.4,41.0,81,29.42,6.2,SSW,15.0,-,N/A,,Unknown,210,2012-11-04 16:25:00
5:55 PM,46.4,41.0,81,29.42,6.2,SW,17.3,-,N/A,,Unknown,220,2012-11-04 16:55:00
6:25 PM,44.6,41.0,87,29.42,6.2,SSW,12.7,-,N/A,,Unknown,210,2012-11-04 17:25:00
6:55 PM,46.4,41.0,81,29.42,6.2,SSW,13.8,-,N/A,,Overcast,210,2012-11-04 17:55:00
7:00 PM,46,42,79,29.45,28,SSW,15.7,,,,Partly Cloudy,210,2012-11-04 18:00:00
7:25 PM,46.4,41.0,81,29.42,6.2,SSW,17.3,-,N/A,,Overcast,210,2012-11-04 18:25:00
7:55 PM,46.4,41.0,81,29.42,6.2,SSW,17.3,-,N/A,,Overcast,200,2012-11-04 18:55:00
8:25 PM,46.4,41.0,81,29.42,6.2,SSW,16.1,-,N/A,,Overcast,210,2012-11-04 19:25:00
8:55 PM,46.4,39.2,76,29.42,6.2,SSW,17.3,-,N/A,,Mostly Cloudy,200,2012-11-04 19:55:00
9:25 PM,46.4,41.0,81,29.44,6.2,SSW,19.6,-,N/A,,Overcast,210,2012-11-04 20:25:00
9:55 PM,46.4,41.0,81,29.44,6.2,SSW,19.6,-,N/A,,Overcast,210,2012-11-04 20:55:00
10:00 PM,46,40,74,29.47,28,SSW,20.1,,,,Overcast,210,2012-11-04 21:00:00
10:25 PM,46.4,39.2,76,29.44,6.2,SSW,19.6,-,N/A,,Overcast,210,2012-11-04 21:25:00
10:55 PM,46.4,39.2,76,29.44,6.2,SSW,19.6,-,N/A,,Mostly Cloudy,210,2012-11-04 21:55:00
11:25 PM,44.6,39.2,81,29.44,6.2,SSW,18.4,-,N/A,,Scattered Clouds,210,2012-11-04 22:25:00
11:55 PM,46.4,39.2,76,29.44,6.2,SSW,18.4,-,N/A,,Mostly Cloudy,210,2012-11-04 22:55:00